Regional Weather Roundup
Issued by NWS

Home | Current Version | Previous Version | Graphics & Text | Print | Product List | Glossary On
Versions: 1 2 3 4 5 6 7 8 9 10 11 12 13 14 15 16 17 18 19 20 21 22 23 24 25 26 27 28 29 30 31 32 33 34 35 36 37 38 39 40 41 42 43 44 45 46 47 48 49 50
922
ASUS43 KIND 302209
RWRIN

WEATHER ROUNDUP FOR INDIANA
NATIONAL WEATHER SERVICE INDIANAPOLIS IN
600 PM EDT SUN APR 30 2017

NOTE: "FAIR" INDICATES FEW OR NO CLOUDS BELOW 12,000 FEET WITH NO
SIGNIFICANT WEATHER AND/OR OBSTRUCTIONS TO VISIBILITY.

* - STATION DOES NOT REPORT WEATHER SUCH AS PRECIPITATION OR FOG.

+ - STATION NOT QUALITY CONTROLLED BY THE NATIONAL WEATHER SERVICE.
    USE DATA WITH CAUTION...ESPECIALLY DEWPOINT AND RELATIVE
    HUMIDITY OBSERVATIONS.

INZ001>003-010>013-019-020-302300-
NORTHWEST INDIANA

CITY           SKY/WX    TMP DP  RH WIND       PRES   REMARKS
GARY /AIRPORT/ LGT RAIN  46  46 100 N14       29.77F VSB 3/4
KNOX *+        CLOUDY    63  57  82 CALM      29.73F
LA PORTE +     DRIZZLE   54  53  97 N5        29.75F
MICHIGAN CITY+ RAIN      46  46 100 NE3       29.76F
MONTICELLO +   CLOUDY    66  64  92 S5        29.72F
RENSSELAER +   RAIN      64  63  94 S6        29.73F
VALPARAISO     LGT RAIN  52  50  93 N5        29.76R FOG

$$

LMZ046-743>745-302300-
SOUTHERN LAKE MICHIGAN

STATION/POSITION TIME  TEMP    WIND        PRES    WAVE
                       AIR SEA DIR/SP/G            HT
                 (UTC) (F)     (DEG/KT/KT) (MB)    (FT)
BURNS HARBOR     2140   45      40/  8/  9 1008.5F
MICHIGAN CITY    2140   45      30/  6/  7   N/A
5NW MICH CITY    2200   45 49                N/A     3

$$

INZ004-005-014>016-021>024-302300-
NORTH CENTRAL INDIANA

CITY           SKY/WX    TMP DP  RH WIND       PRES   REMARKS
GOSHEN         CLOUDY    67  62  84 S7        29.76F
LOGANSPORT +   CLOUDY    64  63  94 S10       29.77S
PERU/GRISSOM   CLOUDY    66  66 100 S8        29.76S
ROCHESTER +    PTSUNNY   70  64  83 S6        29.75F
SOUTH BEND     LGT RAIN  63  62  97 S3        29.75S
WARSAW +       CLOUDY    66  63  88 S6        29.76F

$$

INZ006>009-017-018-025>027-302300-
NORTHEAST INDIANA

CITY           SKY/WX    TMP DP  RH WIND       PRES   REMARKS
ANGOLA *+      MOSUNNY   64  61  88 SE6       29.79S
AUBURN +       LGT RAIN  66  63  88 S5        29.80F
FORT WAYNE     LGT RAIN  66  62  87 S8        29.80F
HUNTINGTON +   TSTM     N/A N/A N/A S5        29.78F
KENDALLVILLE + LGT RAIN  66  66  99 S8        29.79S

$$

INZ028-029-035-036-043>045-051>053-302300-
WEST CENTRAL INDIANA

CITY           SKY/WX    TMP DP  RH WIND       PRES   REMARKS
CRAWFORDSVL +  LGT RAIN  64  64 100 E8        29.72F
GREENCASTLE +  RAIN      64  63  94 SE7       29.73F
LAFAYETTE      RAIN      66  64  93 SE9       29.72F FOG
TERRE HAUTE    LGT RAIN  68  64  87 SE14      29.69F

$$

INZ030>032-037>040-046>048-054>057-064-065-302300-
CENTRAL INDIANA

CITY           SKY/WX    TMP DP  RH WIND       PRES   REMARKS
CP ATTERBURY + CLOUDY    66  63  88 E5        29.76F
COLUMBUS       CLOUDY    68  63  83 NE5       29.77F
FISHERS *+     CLOUDY    64  64 100 SE5       29.75
FRANKFORT +    CLOUDY    68  65  90 S7        29.76F
GREENWOOD *+   CLOUDY    67  64  89 SE5       29.76F
INDIANAPOLIS   CLOUDY    66  64  93 SE7       29.74F
-EAGLE CREEK   CLOUDY    67  63  87 SE6       29.74F
KOKOMO +       CLOUDY    65  63  93 S8        29.78
MARION +       LGT RAIN  64  63  94 S10       29.78F
MT COMFORT *+  CLOUDY    64  63  94 SE5       29.77F
SHELBYVILLE    CLOUDY    68  63  84 E7        29.76F
ZIONSVILLE +   CLOUDY    65  63  94 S5        29.76F

$$

INZ033-034-041-042-049-050-058-059-302300-
EAST CENTRAL INDIANA

CITY           SKY/WX    TMP DP  RH WIND       PRES   REMARKS
MUNCIE         CLOUDY    66  62  87 SE7       29.79F
RICHMOND +     CLOUDY    68  63  83 NW10G18   29.83S

$$

INZ060-061-067>069-081>083-085>088-302300-
SOUTHWEST INDIANA

CITY           SKY/WX    TMP DP  RH WIND       PRES   REMARKS
EVANSVILLE     LGT RAIN  72  68  87 S12       29.69S
WASHINGTON +   LGT RAIN  68  66  94 CALM      29.70F

$$

INZ062-063-066-070>080-084-089>092-302300-
SOUTH CENTRAL AND SOUTHEAST INDIANA

CITY           SKY/WX    TMP DP  RH WIND       PRES   REMARKS
BEDFORD +      CLOUDY    73  66  78 S7        29.71
BLOOMINGTON    LGT RAIN  67  64  90 SE5       29.73F
MADISON *+     CLOUDY    79  61  53 SE12G20   29.80F
NORTH VERNON + CLOUDY    77  64  65 S8G16     29.77
SEYMOUR +      CLOUDY    81  64  57 SE15G23   29.73F

$$





USA.gov is the U.S. government's official web portal to all federal, state and local government web resources and services.